Content
SEND FEEDBACK

Daily
Averages
Monthly
Summary
Ireland

CLAREMORRIS, IRELAND


Home > Europe > Ireland
Elevation: 226 feet     Latitude: 53 43N     Longitude: 008 59W

WEATHER
 
SELECT A DAY
Number of Records: 188,711;   Date Range: 5/30/97 - 7/20/14
 
SHARE

PRINT THIS DATA

[ ← Previous Day ]
WEATHER ALMANAC - JUNE 29, 2013
[ Next Day → ]
[ °C ]   °F
We're sorry. There is no daily almanac available for Claremorris, Ireland on June 29, 2013.
WEATHER BY HOUR - JUNE 29, 2013
[ °C ]   °F
Local TimeTemperatureDewpointHumidityBarometerVisibilityWind DirectionWind SpeedGust SpeedPrecipitationEventsConditions
7:00 AM50.0 °F49.0 °F97 %30.22 in3.0 miSSW (200°)4.5 mphRainLight Drizzle
7:00 AM50.0 °F50.0 °F100 %30.18 in2.8 miSSW (200°)4.6 mphLight Drizzle
7:30 AM50.0 °F50.0 °F100 %30.18 in3.1 miSouth (190°)6.9 mphLight Drizzle
8:00 AM50.0 °F50.0 °F100 %30.18 in3.1 miSouth (190°)6.9 mphLight Drizzle
8:30 AM51.8 °F51.8 °F100 %30.18 in0.9 miSSW (210°)8.1 mphLight Drizzle
9:00 AM53.6 °F53.6 °F100 %30.18 in1.7 miSW (220°)6.9 mphLight Drizzle
9:30 AM55.4 °F55.4 °F100 %30.18 in2.8 miWSW (250°)13.8 mphLight Drizzle
10:00 AM55.4 °F55.4 °F100 %30.18 in1.5 miWSW (240°)13.8 mphLight Drizzle
10:30 AM55.4 °F55.4 °F100 %30.21 in0.2 miWSW (250°)13.8 mphFogFog
11:00 AM55.4 °F55.4 °F100 %30.21 in0.2 miWSW (250°)15.0 mphFogFog
11:30 AM55.4 °F55.4 °F100 %30.21 in0.2 miWSW (240°)17.3 mphFogLight Drizzle
12:00 PM55.4 °F55.4 °F100 %30.21 in0.2 miWest (260°)18.4 mphFogFog
12:30 PM57.2 °F57.2 °F100 %30.21 in0.4 miWest (260°)18.4 mphFogFog
1:00 PM59.0 °F57.2 °F94 %30.21 in3.1 miWest (260°)13.8 mphMostly Cloudy
1:00 PM58.0 °F57.0 °F97 %30.23 in3.0 miWest (260°)13.4 mphFogLight Fog
1:30 PM60.8 °F59.0 °F94 %30.21 in6.2 miWSW (250°)16.1 mphMostly Cloudy
2:00 PM62.6 °F57.2 °F82 %30.21 in6.2 miWSW (250°)20.7 mphMostly Cloudy
2:30 PM62.6 °F57.2 °F82 %30.21 in6.2 miWSW (250°)18.4 mphMostly Cloudy
3:00 PM64.4 °F57.2 °F77 %30.24 in6.2 miWest (260°)17.3 mphScattered Clouds
3:30 PM64.4 °F55.4 °F73 %30.24 in6.2 miWest (270°)18.4 mphPartly Cloudy
4:00 PM64.4 °F57.2 °F77 %30.24 in6.2 miWest (260°)18.4 mphPartly Cloudy
4:30 PM64.4 °F57.2 °F77 %30.24 in6.2 miWSW (250°)15.0 mphScattered Clouds
5:00 PM62.6 °F55.4 °F77 %30.24 in6.2 miWest (260°)13.8 mphMostly Cloudy
5:30 PM60.8 °F55.4 °F82 %30.24 in6.2 miWSW (250°)16.1 mphMostly Cloudy
6:00 PM60.8 °F53.6 °F77 %30.24 in6.2 miWSW (250°)16.1 mphMostly Cloudy
6:30 PM59.0 °F53.6 °F82 %30.24 in6.2 miWSW (250°)15.0 mphMostly Cloudy
7:00 PM58.0 °F54.0 °F80 %30.26 in25.0 miWSW (250°)13.4 mphMostly Cloudy
7:00 PM59.0 °F53.6 °F82 %30.24 in6.2 miWSW (250°)13.8 mphMostly Cloudy
Hourly data recorded from EIKN, located miles away from Claremorris, Ireland







STORIES FROM OUR PARTNERS